Regional Weather Roundup
Issued by NWS

Home | Current Version | Previous Version | Text Only | Print | Product List | Glossary Off
Versions: 1 2 3 4 5 6 7 8 9 10 11 12 13 14 15 16 17 18 19 20 21 22 23 24 25 26 27 28 29 30 31 32 33 34 35 36 37 38 39 40 41 42 43 44 45 46 47 48 49 50

000
ASUS43 KMKX 231221
RWRWI

WISCONSIN REGIONAL WEATHER ROUNDUP
NATIONAL WEATHER SERVICE MILWAUKEE/SULLIVAN WI
700 AM CDT TUE MAY 23 2017

NOTE: "FAIR" INDICATES FEW OR NO CLOUDS BELOW 12,000 FEET WITH NO
SIGNIFICANT WEATHER AND/OR OBSTRUCTIONS TO VISIBILITY.

WIZ001-002-006>008-014>016-023>028-231300-
NORTHWEST WISCONSIN

CITY           SKY/WX    TMP DP  RH WIND       PRES   REMARKS
SUPERIOR ARPT  NOT AVBL
ASHLAND        CLOUDY    46  45  96 CALM      29.85R
6HR MIN TEMP:  43; 6HR MAX TEMP:  48;

HAYWARD        LGT RAIN  44  43  96 CALM      29.83S FOG
6HR MIN TEMP:  40; 6HR MAX TEMP:  44; 6HR PCP:  0.12;

SIREN          CLOUDY    45  44  98 CALM      29.83R
6HR MIN TEMP:  41; 6HR MAX TEMP:  46; 6HR PCP:  0.02;

CUMBERLAND     CLOUDY    46  43  87 CALM      29.82S
RICE LAKE      PTSUNNY   48  46  95 N7        29.83S
6HR MIN TEMP:  47; 6HR MAX TEMP:  48; 6HR PCP:  0.09;

CHETEK         CLOUDY    48  47  98 CALM      29.82S
6HR MIN TEMP:  46; 6HR MAX TEMP:  48; 6HR PCP:  0.15;

LADYSMITH      CLOUDY    46  44  95 N3        29.83S
6HR MIN TEMP:  42; 6HR MAX TEMP:  46; 6HR PCP:  0.07;

EAU CLAIRE     CLOUDY    49  47  93 NE3       29.80R
6HR MIN TEMP:  49; 6HR MAX TEMP:  52; 6HR PCP:  0.02;

MENOMONIE      CLOUDY    50  48  95 CALM      29.81R
6HR MIN TEMP:  49; 6HR MAX TEMP:  52;

NEW RICHMOND   CLOUDY    48  47  99 CALM      29.82R
6HR MIN TEMP:  47; 6HR MAX TEMP:  50; 6HR PCP:  0.13;

OSCEOLA        CLOUDY    48  48 100 NE3       29.84S
6HR MIN TEMP:  48; 6HR MAX TEMP:  49; 6HR PCP:  0.04;

$$

WIZ003>005-009-010-017-018-231300-
NORTH CENTRAL WISCONSIN

CITY           SKY/WX    TMP DP  RH WIND       PRES   REMARKS
MANITOWISH WTR CLOUDY    42  42 100 CALM      29.83R
6HR MIN TEMP:  37; 6HR MAX TEMP:  42;

ARBOR VITAE    PTSUNNY   44  43  95 CALM      29.82R
6HR MIN TEMP:  39; 6HR MAX TEMP:  44;

WOODRUFF       PTSUNNY   44  43  95 CALM      29.82R
6HR MIN TEMP:  39; 6HR MAX TEMP:  44;

RHINELANDER    LGT RAIN  47  45  93 CALM      29.83R
6HR MIN TEMP:  40; 6HR MAX TEMP:  47; 6HR PCP:  0.05;

EAGLE RIVER    LGT RAIN  44  44 100 CALM      29.82S
6HR MIN TEMP:  39; 6HR MAX TEMP:  44;

LAND O LAKES   CLOUDY    42  42 100 CALM      29.85R
6HR MIN TEMP:  39; 6HR MAX TEMP:  44;

PHILLIPS       CLOUDY    44  44 100 CALM      29.81R
6HR MIN TEMP:  37; 6HR MAX TEMP:  44;

TOMAHAWK       RAIN      44  43  97 CALM      29.83R
6HR MIN TEMP:  38; 6HR MAX TEMP:  44;

MEDFORD        LGT RAIN  46  44  92 CALM      29.81R
6HR MIN TEMP:  45; 6HR MAX TEMP:  47;

MERRILL        RAIN      46  46 100 E3        29.82R
6HR MIN TEMP:  42; 6HR MAX TEMP:  46; 6HR PCP:  0.13;

$$

WIZ029-030-035-036-043>047-231300-
CENTRAL WISCONSIN

CITY           SKY/WX    TMP DP  RH WIND       PRES   REMARKS
WAUSAU         CLOUDY    48  46  93 NE6       29.79R
6HR MIN TEMP:  47; 6HR MAX TEMP:  49; 6HR PCP:  0.05;

MOSINEE        CLOUDY    48  48 100 E5        29.80S
MARSHFIELD     CLOUDY    49  46  90 NE7       29.78S
6HR MIN TEMP:  48; 6HR MAX TEMP:  51; 6HR PCP:  0.02;

STEVENS POINT  CLOUDY    48  46  90 E7        29.79S
6HR MIN TEMP:  46; 6HR MAX TEMP:  50;

WAUPACA        CLOUDY    53  48  84 NE3       29.79S
6HR MIN TEMP:  52; 6HR MAX TEMP:  56; 6HR PCP:  0.11;

WAUTOMA        CLOUDY    52  48  87 NE5       29.78S
WISC RAPIDS    CLOUDY    50  47  89 E5        29.79R
6HR MIN TEMP:  50; 6HR MAX TEMP:  54; 6HR PCP:  0.33;

CAMP DOUGLAS   CLOUDY    48  48 100 CALM      29.77S FOG
                                      6HR PCP:  0.12;

$$

WIZ011>013-019>022-031-037>040-048>050-231300-
NORTHEAST WISCONSIN

CITY           SKY/WX    TMP DP  RH WIND       PRES   REMARKS
ANTIGO         CLOUDY    46  45  96 E3        29.82R
6HR MIN TEMP:  43; 6HR MAX TEMP:  47;

SHAWANO        CLOUDY    52  47  85 E3        29.82R
6HR MIN TEMP:  51; 6HR MAX TEMP:  52; 6HR PCP:  0.06;

OCONTO         CLOUDY    49  47  95 N3        29.81S
6HR MIN TEMP:  40; 6HR MAX TEMP:  49;

STURGEON BAY   CLOUDY    49  45  86 E7        29.82S
6HR MIN TEMP:  45; 6HR MAX TEMP:  49;

GREEN BAY      CLOUDY    54  46  74 E9        29.79S
6HR MIN TEMP:  49; 6HR MAX TEMP:  54; 6HR PCP: TRACE;

MANITOWOC      MOSUNNY   49  45  86 N3        29.81R
6HR MIN TEMP:  48; 6HR MAX TEMP:  54;

APPLETON       CLOUDY    54  43  66 VRB6      29.78R
CLINTONVILLE   CLOUDY    50  46  87 NE3       29.81R
OSHKOSH        CLOUDY    56  54  93 S5        29.77S
6HR MIN TEMP:  54; 6HR MAX TEMP:  58;

$$

WIZ032>034-041-042-053>061-231300-
SOUTHWEST WISCONSIN

CITY           SKY/WX    TMP DP  RH WIND       PRES   REMARKS
LA CROSSE      CLOUDY    55  53  93 CALM      29.77R
6HR MIN TEMP:  52; 6HR MAX TEMP:  55; 6HR PCP: TRACE;

SPARTA         FOG       49  49 100 CALM      29.78S VSB 3/4
6HR MIN TEMP:  44; 6HR MAX TEMP:  53; 6HR PCP:  0.01;

VIROQUA        MOSUNNY   51  51 100 MISG      29.76S
6HR MIN TEMP:  50; 6HR MAX TEMP:  52;

BOSCOBEL       CLOUDY    54  52  93 CALM      29.77R FOG
6HR MIN TEMP:  50; 6HR MAX TEMP:  56;

PRAIRIE DU CHI CLOUDY    52  51  97 CALM      29.77R
6HR MIN TEMP:  50; 6HR MAX TEMP:  53;

PLATTEVILLE    CLOUDY    54  54 100 SW13      29.78S
6HR MIN TEMP:  54; 6HR MAX TEMP:  57;

$$

WIZ056-057-062-063-064-067-068-231300-
SOUTH CENTRAL WISCONSIN

CITY           SKY/WX    TMP DP  RH WIND       PRES   REMARKS
REEDSBURG      CLOUDY    52  52 100 CALM      29.76S FOG
6HR MIN TEMP:  51; 6HR MAX TEMP:  55; 6HR PCP:  0.06;

BARABOO/DELLS  CLOUDY    53  52  96 CALM      29.77S
6HR MIN TEMP:  49; 6HR MAX TEMP:  55; 6HR PCP:  0.06;

LONE ROCK      CLOUDY    54  53  97 CALM      29.77R FOG
6HR MIN TEMP:  50; 6HR MAX TEMP:  55;

MINERAL POINT  CLOUDY    54  54 100 SW8       29.77S
MADISON        CLOUDY    56  55  97 SW3       29.76S
6HR MIN TEMP:  54; 6HR MAX TEMP:  56; 6HR PCP:  0.01;

MIDDLETON      CLOUDY    56  56 100 SW7       29.77S
6HR MIN TEMP:  54; 6HR MAX TEMP:  57; 6HR PCP:  0.01;

WATERTOWN      CLOUDY    56  56 100 SW7       29.78S
6HR MIN TEMP:  54; 6HR MAX TEMP:  56;

MONROE         CLOUDY    52  52 100 SW6       29.77S
JANESVILLE     PTSUNNY   57  55  94 SW8       29.78R
$$

WIZ051-052-058>065-066-070>072-231300-
SOUTHEAST WISCONSIN

CITY           SKY/WX    TMP DP  RH WIND       PRES   REMARKS
MILWAUKEE      PTSUNNY   60  55  83 SW8       29.79R
6HR MIN TEMP:  57; 6HR MAX TEMP:  60;

WAUKESHA       CLOUDY    54  54 100 S5        29.79S
MILWAUKEE/TIMM PTSUNNY   55  52  88 CALM      29.80R
RACINE         MOSUNNY   60  53  77 SW10      29.80S
6HR MIN TEMP:  56; 6HR MAX TEMP:  60;

KENOSHA        CLOUDY    59  53  80 SW14      29.79S
6HR MIN TEMP:  57; 6HR MAX TEMP:  59;

FOND DU LAC    CLOUDY    57  53  86 S6        29.78S
6HR MIN TEMP:  54; 6HR MAX TEMP:  58;

SHEBOYGAN      CLOUDY    52  50  93 CALM      29.79R
6HR MIN TEMP:  48; 6HR MAX TEMP:  55;

WEST BEND      CLOUDY    55  55 100 S3        29.79S
JUNEAU         CLOUDY    55  54  96 CALM      29.79S
6HR MIN TEMP:  53; 6HR MAX TEMP:  56;

$$

LSZ147-162-231300-
LAKE SUPERIOR

STATION/POSITION TIME  TEMP    WIND        PRES    WAVE
                       AIR SEA DIR/SP/G            HT/PER
                 (UTC) (F)     (DEG/KT/KT) (MB)    (FT/S)
W MID LAKE BUOY  1150   41 37   10/ 10/ 10 1011.0R   0
DEVILS ISLAND    1200   45      10/  8/  8 1011.2R
PORT WING        1140   44     240/  1/  2 1010.8R
SAXON HARBOR     1140   45     210/  2/  3 1010.2R
$$

LMZ867-665-643>646-231300-
LAKE MICHIGAN

STATION/POSITION TIME  TEMP    WIND        PRES    WAVE
                       AIR SEA DIR/SP/G            HT/PER
                 (UTC) (F)     (DEG/KT/KT) (MB)    (FT/S)
CHAMBERS ISLAND  1140   47      20/  4/  5 1010.2R
N MID LAKE BUOY  1150   41 39   70/  4/  4 1011.3R   1/ 5
NORTHPORT PIER   114



USA.gov is the U.S. government's official web portal to all federal, state and local government web resources and services.